This demonstration page uses our WeatherBlox Daily Observations layout. Learn more.

Hourly Observations for August 15, 2016

Temp ( °F °C ) Dew Point ( °F °C ) Humidity (%) Winds ( mph kmh ) Pressure ( in mb ) Visibility ( mi km ) Precip ( " mm )
12:54 am 00:54 Clear 67 19.4 62 16.7 84 84 Calm 30.05 1018 10 16.0934 0 0
1:54 am 01:54 Clear 65 18.3 60 15.6 84 84 Calm 30.05 1018 10 16.0934 0 0
2:54 am 02:54 Clear 65 18.3 61 16.1 87 87 Calm 30.04 1017 10 16.0934 0 0
3:54 am 03:54 Clear 64 17.8 60 15.6 87 87 W 3 6 30.04 1017 10 16.0934 0 0
4:54 am 04:54 Clear 64 17.8 61 16.1 90 90 NNW 3 6 30.04 1017 10 16.0934 0 0
5:54 am 05:54 Clear 61 16.1 59 15 93 93 NNW 5 7 30.05 1018 10 16.0934 0 0
6:54 am 06:54 Sunny 62 16.7 60 15.6 93 93 NNW 3 6 30.05 1018 10 16.0934 0 0
7:54 am 07:54 Sunny 64 17.8 61 16.1 90 90 Calm 30.05 1018 10 16.0934 0 0
8:54 am 08:54 Sunny 68 20 64 17.8 87 87 Calm 30.04 1017 10 16.0934 0 0
9:54 am 09:54 Sunny 72 22.2 65 18.3 79 79 Calm 30.04 1017 7 11.26538 0 0
10:54 am 10:54 Sunny 76 24.4 66 18.9 72 72 Calm 30.04 1017 10 16.0934 0 0
11:54 am 11:54 Sunny 80 26.7 65 18.3 60 60 SSE 10 17 30.03 1017 10 16.0934 0 0
12:54 pm 12:54 Sunny 82 27.8 63 17.2 53 53 VRB 7 11 30.02 1017 10 16.0934 0 0
1:54 pm 13:54 Sunny 84 28.9 61 16.1 46 46 ESE 5 7 30.01 1016 10 16.0934 0 0
2:54 pm 14:54 Sunny 83 28.3 62 16.7 49 49 SSE 9 15 30.01 1016 10 16.0934 0 0
3:54 pm 15:54 Mostly Sunny 83 28.3 64 17.8 53 53 VRB 6 9 30.01 1016 10 16.0934 0 0
4:54 pm 16:54 Sunny 84 28.9 64 17.8 51 51 SSE 9 15 30 1016 10 16.0934 0 0
5:54 pm 17:54 Sunny 84 28.9 64 17.8 51 51 SSE 9 15 29.99 1016 10 16.0934 0 0
6:54 pm 18:54 Sunny 82 27.8 64 17.8 55 55 SSE 6 9 29.98 1015 10 16.0934 0 0
7:54 pm 19:54 Sunny 80 26.7 64 17.8 58 58 SE 8 13 29.98 1015 10 16.0934 0 0
8:54 pm 20:54 Clear 76 24.4 66 18.9 72 72 SE 9 15 29.98 1015 10 16.0934 0 0
9:54 pm 21:54 Clear 73 22.8 66 18.9 79 79 SSE 6 9 29.99 1016 10 16.0934 0 0
10:54 pm 22:54 Clear 71 21.7 65 18.3 81 81 SSE 8 13 30 1016 10 16.0934 0 0
11:54 pm 23:54 Clear 70 21.1 65 18.3 84 84 S 9 15 30.01 1016 10 16.0934 0 0

Powered by AerisWeather